Temp
10 10 9 10 10 10 10 11 11 11 11 11 12 11 11 11 10 9 9 9 10 9
11 10 10 10 10 10 10 11 11 11 12 12 12 11 10 10 10 9 9 9 9 9
13 12 11 10 10 10 11 11 12 12 12 11 11 10 10 9 10 9 9 9 8 9
13 13 13 13 13 12 12 13 12 11 11 11 11 10 9 9 9 9 9 9 9 9
14 14 13 13 13 15 13 12 12 12 11 11 11 9 9 9 9 9 8 9 8 8
14 14 14 14 13 13 12 12 11 11 11 11 11 10 9 9 9 9 9 8 8 8
14 14 13 13 13 13 12 12 12 11 11 10 11 10 11 10 9 9 8 8 7 6
16 14 13 13 12 13 12 12 11 10 9 9 11 11 10 10 9 8 8 7 6 6
16 14 13 12 11 11 11 11 10 10 10 10 9 10 9 9 9 8 7 6 5 5
15 14 13 12 11 11 11 10 10 10 10 9 9 9 9 8 7 7 6 5 4 4
16 14 12 11 11 11 10 10 10 9 9 8 9 8 7 7 6 5 5 4 3 2
15 14 12 10 10 10 9 9 8 8 8 8 7 7 6 6 5 4 3 2 1 1
14 12 10 9 9 9 8 8 8 7 6 6 5 5 5 5 4 3 2 1 0 -0
12 10 9 9 9 8 8 7 7 5 4 4 4 3 3 2 2 1 0 -0 -1 -2
Height
1483 1487 1494 1496 1499 1503 1507 1509 1515 1517 1519 1523 1527 1529 1530 1530 1531 1531 1531 1529 1530 1531
1477 1481 1485 1489 1493 1498 1501 1503 1506 1509 1513 1517 1520 1521 1520 1521 1520 1521 1522 1523 1524 1526
1472 1476 1480 1484 1488 1492 1495 1498 1499 1503 1506 1509 1511 1511 1511 1510 1509 1510 1514 1516 1517 1517
1464 1469 1474 1479 1482 1485 1491 1490 1493 1496 1498 1499 1500 1499 1498 1493 1500 1501 1505 1507 1508 1508
1457 1461 1464 1467 1471 1475 1476 1478 1482 1485 1488 1489 1488 1490 1490 1492 1495 1495 1496 1497 1498 1499
1446 1451 1454 1458 1464 1468 1469 1474 1473 1475 1479 1479 1480 1483 1484 1488 1489 1488 1489 1488 1490 1491
1436 1439 1444 1449 1454 1458 1459 1463 1467 1468 1469 1470 1471 1475 1477 1479 1480 1480 1480 1480 1483 1484
1425 1429 1434 1439 1443 1448 1449 1452 1457 1459 1459 1462 1464 1466 1469 1471 1473 1472 1473 1475 1476 1479
1418 1420 1424 1429 1434 1437 1439 1443 1446 1450 1451 1454 1455 1458 1462 1464 1464 1465 1467 1470 1472 1473
1411 1413 1417 1421 1425 1429 1431 1436 1439 1442 1443 1446 1448 1452 1455 1456 1457 1460 1462 1464 1466 1468
1406 1408 1411 1414 1418 1422 1426 1429 1432 1436 1437 1440 1443 1446 1448 1451 1454 1456 1458 1461 1463 1465
1401 1403 1406 1410 1414 1417 1421 1424 1427 1429 1432 1435 1438 1440 1442 1445 1448 1451 1454 1456 1459 1462
1397 1400 1403 1405 1409 1411 1414 1418 1421 1424 1428 1430 1433 1436 1438 1441 1445 1448 1450 1453 1455 1458
1394 1398 1401 1401 1405 1408 1409 1412 1416 1420 1425 1428 1431 1433 1436 1439 1442 1445 1448 1451 1453 1455
Wind_Speed
40 42 46 45 46 47 50 51 51 49 46 42 39 36 38 41 39 36 32 36 38 37
39 43 44 42 41 42 42 43 43 40 41 41 43 41 38 38 41 38 31 30 35 34
38 39 40 40 40 41 39 40 39 40 42 43 44 45 44 36 38 39 33 40 37 36
40 37 34 33 33 35 37 43 44 45 44 45 44 48 47 31 34 35 38 34 36 34
39 42 41 43 39 31 41 45 44 48 48 41 45 40 36 36 35 35 31 33 31 32
46 46 46 48 41 45 45 39 34 43 43 46 48 43 34 30 35 34 32 32 32 31
50 51 52 49 46 50 54 49 47 43 44 44 41 41 38 39 31 30 29 27 26 26
43 47 47 47 49 52 52 51 49 49 42 40 38 38 36 36 35 30 25 24 24 22
35 39 40 39 41 44 49 50 47 43 38 41 39 43 37 38 35 27 23 21 21 22
32 34 34 33 37 39 42 42 40 36 34 37 35 36 34 28 23 21 20 21 22 23
27 28 31 33 35 37 38 35 32 32 36 32 27 26 23 22 20 19 20 20 21 21
24 25 28 30 32 35 36 34 32 26 26 23 22 22 21 20 22 21 21 21 21 21
20 19 20 20 22 23 24 25 24 23 20 18 18 19 20 22 21 20 21 22 22 21
13 10 10 11 17 22 25 26 24 21 18 18 18 18 17 15 15 16 18 17 16 15
Wind_Direction
219 222 225 227 231 232 235 235 240 242 243 243 256 266 270 269 266 268 270 271 272 268
224 225 228 230 231 236 240 239 239 238 236 245 257 268 269 268 261 274 262 269 259 266
227 229 232 236 239 242 246 243 239 237 242 255 266 269 269 261 255 261 246 253 264 271
231 233 237 242 244 249 256 249 243 246 255 262 268 268 274 252 263 254 268 262 272 269
238 237 236 239 235 247 239 253 255 258 260 266 260 268 248 257 252 263 271 275 272 266
242 239 240 243 242 243 245 245 238 250 256 257 259 266 263 257 267 272 270 270 264 258
247 247 244 242 244 243 248 250 249 259 268 256 261 257 251 254 259 277 268 261 256 249
252 253 253 249 246 245 250 254 256 258 267 260 252 249 247 251 259 263 252 246 246 244
253 254 255 254 251 248 250 252 256 256 264 261 255 252 254 252 261 243 243 240 242 243
249 252 251 251 248 248 249 250 250 256 256 260 253 253 254 250 233 233 237 241 246 240
244 248 246 244 245 248 248 244 242 257 259 250 246 244 228 225 232 237 242 235 235 237
236 241 242 241 242 243 246 249 252 234 234 227 224 225 227 233 241 230 226 225 224 222
235 242 239 242 247 243 237 226 214 205 206 211 218 226 238 240 234 228 225 219 217 223
233 236 235 230 229 213 199 196 201 206 216 219 214 211 219 207 216 216 207 211 225 245